User: anonymous   Login
Location: Caltech
(34.1382°N, 118.1253°W)
Time: 22:51:56
(UTC-07:00)
Language:

JAS-1B - Orbit

View from above orbital plane
View from above orbital plane
View from above satellite
View from above satellite

Ground track
Ground track

The orbit data is extracted from the following two-line orbital elements,

1 20480U 90013C   17227.88135507 -.00000020  00000-0  35108-4 0  9997
2 20480  99.0633 349.9039 0539331 255.7927  98.2709 12.83416451289373
Epoch (UTC): 15 August 2017 21:09:09
Eccentricity: 0.0539331
inclination: 99.0633°
perigee height: 912 km
apogee height: 1743 km
right ascension of ascending node: 349.9039°
argument of perigee: 255.7927°
revolutions per day: 12.83416451
mean anomaly at epoch: 98.2709°
orbit number at epoch: 28937

The dashed part of the orbit path shows where the satellite is in the earth's shadow,  

DLR